Overview Statistics Trail Chart Weather Telemetry Raw packets
 

This is the latest recevied weather packets stored in our database for station/object NR0A-4. If no packets are shown the sender has not sent any weather packets the latest 10 day(s).

<< 15 16 17 18 19 20 21 >>
Time Temp. Humidity Pressure Rain* Wind** Luminosity Snow
1788549004 33.89° C 60% 1011.9 hPa 0 mm - 619 W/m² -
1788548704 33.89° C 62% 1011.9 hPa 0 mm - 691 W/m² -
1788548404 33.89° C 62% 1012 hPa 0 mm - 754 W/m² -
1788548104 33.89° C 62% 1012 hPa 0 mm - 754 W/m² -
1788547804 33.33° C 56% 1012.1 hPa 0 mm - 754 W/m² -
1788547504 33.33° C 56% 1012.1 hPa 0 mm - 759 W/m² -
1788547204 33.33° C 56% 1012 hPa 0 mm - 754 W/m² -
1788546904 33.33° C 56% 1012 hPa 0 mm - 721 W/m² -
1788546604 33.89° C 60% 1012 hPa 0 mm - 698 W/m² -
1788546304 33.89° C 59% 1012 hPa 0 mm - 756 W/m² -
1788546004 33.89° C 61% 1012.1 hPa 0 mm - 752 W/m² -
1788545704 33.33° C 58% 1012.1 hPa 0 mm - 749 W/m² -
1788545404 33.33° C 60% 1012.1 hPa 0 mm - 751 W/m² -
1788545104 33.33° C 60% 1012.1 hPa 0 mm - 745 W/m² -
1788544804 33.33° C 60% 1012.1 hPa 0 mm - 744 W/m² -
1788544504 32.78° C 62% 1012.1 hPa 0 mm - 744 W/m² -
1788544204 32.78° C 61% 1012.1 hPa 0 mm - 740 W/m² -
1788543904 32.78° C 63% 1012 hPa 0 mm - 738 W/m² -
1788543604 32.22° C 63% 1012.1 hPa 0 mm - 738 W/m² -
1788543304 32.22° C 62% 1012 hPa 0 mm - 737 W/m² -
1788543004 32.22° C 61% 1012.1 hPa 0 mm - 735 W/m² -
1788542704 32.22° C 61% 1012.1 hPa 0 mm - 731 W/m² -
1788542404 32.22° C 62% 1012.1 hPa 0 mm - 729 W/m² -
1788542104 32.22° C 60% 1012.2 hPa 0 mm - 722 W/m² -
1788541804 32.22° C 60% 1012.2 hPa 0 mm - 719 W/m² -

* Rain latest hour (hover to see other rain measurements)
** Current wind speed in m/s (hover to see current wind gust speed)